Location: Antioch
(38.0049°N, 121.8058°W)
Time: 03:49:12
(UTC+00:00)

Cosmos 2208 Rocket - Pass Details

Date: 26 May 2026
Orbit: 751 x 800 km, 74.0° (Epoch: 9 June)

Event Time Altitude Azimuth Distance (km) Brightness Sun altitude
Exits shadow 09:05:17 20° 294° (WNW) 1,707 5.8 -29.1°
Maximum altitude 09:05:37 20° 299° (WNW) 1,701 5.9 -29.1°
Drops below altitude 10° 09:09:27 10° 347° (NNW) 2,302 7.2 -28.9°
Sets 09:12:26 0° 4° (N) 3,224 8.4 -28.7°
